H1 CPF 2 NER 2023 9 11 9 254 01 glonass146 H2 2216101 9146 54377 2023 9 11 0 0 0 2023 9 14 23 45 0 900 1 1 0 0 0 1 H9 10 0 60198 0.00000 0 85691.151 -16532359.914 19453290.636 10 0 60198 900.00000 0 1464040.348 -14455538.210 20989808.461 10 0 60198 1800.00000 0 3094623.133 -12358215.222 22119632.025 10 0 60198 2700.00000 0 4951358.249 -10303454.602 22820790.097 10 0 60198 3600.00000 0 6996758.364 -8349503.886 23079589.153 10 0 60198 4500.00000 0 9183271.558 -6547509.284 22890884.248 10 0 60198 5400.00000 0 11455055.493 -4939540.522 22258187.732 10 0 60198 6300.00000 0 13750112.499 -3557007.320 21193613.043 10 0 60198 7200.00000 0 16002698.554 -2419533.115 19717653.728 10 0 60198 8100.00000 0 18145907.473 -1534332.856 17858800.763 10 0 60198 9000.00000 0 20114323.758 -896120.940 15653004.162 10 0 60198 9900.00000 0 21846634.059 -487553.329 13142987.978 10 0 60198 10800.00000 0 23288088.275 -280185.528 10377430.711 10 0 60198 11700.00000 0 24392706.947 -235906.260 7410026.029 10 0 60198 12600.00000 0 25125141.620 -308786.409 4298441.486 10 0 60198 13500.00000 0 25462109.051 -447264.810 1103195.309 10 0 60198 14400.00000 0 25393337.840 -596577.841 -2113526.636 10 0 60198 15300.00000 0 24921986.474 -701328.917 -5289089.883 10 0 60198 16200.00000 0 24064514.349 -708087.709 -8361641.672 10 0 60198 17100.00000 0 22850010.528 -567907.351 -11271327.288 10 0 60198 18000.00000 0 21319008.320 -238651.250 -13961467.409 10 0 60198 18900.00000 0 19521835.734 312970.791 -16379672.276 10 0 60198 19800.00000 0 17516571.651 1109744.934 -18478869.963 10 0 60198 20700.00000 0 15366694.341 2162745.641 -20218227.965 10 0 60198 21600.00000 0 13138521.804 3470630.130 -21563949.781 10 0 60198 22500.00000 0 10898551.951 5019465.581 -22489930.985 10 0 60198 23400.00000 0 8710814.528 6783096.914 -22978262.290 10 0 60198 24300.00000 0 6634345.713 8724040.048 -23019570.421 10 0 60198 25200.00000 0 4720890.631 10794863.328 -22613190.896 10 0 60198 26100.00000 0 3012929.068 12939999.263 -21767170.206 10 0 60198 27000.00000 0 1542105.601 15097910.733 -20498098.181 10 0 60198 27900.00000 0 328128.094 17203521.129 -18830774.580 10 0 60198 28800.00000 0 -621821.324 19190806.904 -16797717.072 10 0 60198 29700.00000 0 -1313140.336 20995444.420 -14438520.719 10 0 60198 30600.00000 0 -1763325.524 22557400.846 -11799081.823 10 0 60198 31500.00000 0 -2000978.796 23823361.305 -8930701.565 10 0 60198 32400.00000 0 -2064344.871 24748891.430 -5889087.052 10 0 60198 33300.00000 0 -1999442.990 25300245.669 -2733269.320 10 0 60198 34200.00000 0 -1857872.871 25455746.483 475540.650 10 0 60198 35100.00000 0 -1694388.300 25206677.602 3675135.726 10 0 60198 36000.00000 0 -1564341.237 24557654.729 6803513.438 10 0 60198 36900.00000 0 -1521104.506 23526458.895 9800070.791 10 0 60198 37800.00000 0 -1613581.759 22143339.892 12606770.360 10 0 60198 38700.00000 0 -1883909.568 20449819.135 15169255.691 10 0 60198 39600.00000 0 -2365448.310 18497041.891 17437895.125 10 0 60198 40500.00000 0 -3081146.398 16343747.255 19368734.671 10 0 60198 41400.00000 0 -4042346.857 14053939.773 20924342.399 10 0 60198 42300.00000 0 -5248086.931 11694358.780 22074528.795 10 0 60198 43200.00000 0 -6684921.059 9331849.603 22796929.848 10 0 60198 44100.00000 0 -8327276.022 7030744.697 23077442.058 10 0 60198 45000.00000 0 -10138325.126 4850362.409 22910501.053 10 0 60198 45900.00000 0 -12071346.886 2842726.188 22299198.230 10 0 60198 46800.00000 0 -14071513.571 1050598.201 21255232.556 10 0 60198 47700.00000 0 -16078036.954 -494091.501 19798697.525 10 0 60198 48600.00000 0 -18026583.492 -1771355.199 17957706.186 10 0 60198 49500.00000 0 -19851859.491 -2773750.964 15767860.135 10 0 60198 50400.00000 0 -21490259.069 -3506454.084 13271571.398 10 0 60198 51300.00000 0 -22882464.495 -3986793.376 10517249.073 10 0 60198 52200.00000 0 -23975889.762 -4243271.771 7558365.534 10 0 60198 53100.00000 0 -24726864.142 -4314112.406 4452419.700 10 0 60198 54000.00000 0 -25102462.953 -4245391.811 1259817.359 10 0 60198 54900.00000 0 -25081907.206 -4088839.598 -1957309.446 10 0 60198 55800.00000 0 -24657471.853 -3899398.614 -5136320.231 10 0 60198 56700.00000 0 -23834863.111 -3732650.064 -8215296.378 10 0 60198 57600.00000 0 -22633047.937 -3642214.154 -11134258.714 10 0 60198 58500.00000 0 -21083542.168 -3677238.015 -13836347.293 10 0 60198 59400.00000 0 -19229187.009 -3880078.969 -16268939.151 10 0 60198 60300.00000 0 -17122465.375 -4284282.829 -18384681.233 10 0 60198 61200.00000 0 -14823429.221 -4912944.127 -20142417.589 10 0 60198 62100.00000 0 -12397325.373 -5777518.693 -21507992.410 10 0 60198 63000.00000 0 -9912019.883 -6877139.553 -22454913.252 10 0 60198 63900.00000 0 -7435329.193 -8198465.501 -22964861.814 10 0 60198 64800.00000 0 -5032369.858 -9716068.987 -23028042.909 10 0 60198 65700.00000 0 -2763037.308 -11393347.134 -22643365.590 10 0 60198 66600.00000 0 -679718.343 -13183917.525 -21818453.706 10 0 60198 67500.00000 0 1174668.269 -15033440.098 -20569486.553 10 0 60198 68400.00000 0 2768222.807 -16881788.691 -18920873.464 10 0 60198 69300.00000 0 4081144.287 -18665481.169 -16904769.353 10 0 60198 70200.00000 0 5106295.840 -20320266.389 -14560441.204 10 0 60198 71100.00000 0 5849234.394 -21783759.856 -11933498.196 10 0 60198 72000.00000 0 6327705.697 -22998017.962 -9075000.825 10 0 60198 72900.00000 0 6570628.048 -23911943.404 -6040466.493 10 0 60198 73800.00000 0 6616609.370 -24483421.572 -2888791.056 10 0 60198 74700.00000 0 6512061.620 -24681098.969 318892.691 10 0 60198 75600.00000 0 6308993.185 -24485729.798 3520397.431 10 0 60198 76500.00000 0 6062573.128 -23891034.909 6653681.915 10 0 60198 77400.00000 0 5828570.430 -22904037.612 9658046.646 10 0 60198 78300.00000 0 5660776.327 -21544862.657 12475301.952 10 0 60198 79200.00000 0 5608518.302 -19846006.839 15050886.407 10 0 60198 80100.00000 0 5714370.248 -17851111.567 17334914.634 10 0 60198 81000.00000 0 6012154.969 -15613288.094 19283135.073 10 0 60198 81900.00000 0 6525322.987 -13193064.415 20857780.051 10 0 60198 82800.00000 0 7265775.948 -10656038.269 22028292.510 10 0 60198 83700.00000 0 8233184.535 -8070332.576 22771916.062 10 0 60198 84600.00000 0 9414830.447 -5503957.646 23074137.412 10 0 60198 85500.00000 0 10785980.375 -3022188.333 22928972.730 10 0 60199 0.00000 0 12310777.845 -685063.940 22339092.329 10 0 60199 900.00000 0 13943618.334 1454887.665 21315780.229 10 0 60199 1800.00000 0 15630950.007 3354604.902 19878729.380 10 0 60199 2700.00000 0 17313429.285 4982049.719 18055674.245 10 0 60199 3600.00000 0 18928340.587 6317299.528 15881867.188 10 0 60199 4500.00000 0 20412180.813 7353129.602 13399407.214 10 0 60199 5400.00000 0 21703300.663 8095061.334 10656432.824 10 0 60199 6300.00000 0 22744492.026 8560874.255 7706193.650 10 0 60199 7200.00000 0 23485412.139 8779602.298 4606018.268 10 0 60199 8100.00000 0 23884741.608 8790056.755 1416198.051 10 0 60199 9000.00000 0 23911984.056 8638938.669 -1801191.004 10 0 60199 9900.00000 0 23548830.099 8378621.178 -4983504.814 10 0 60199 10800.00000 0 22790026.610 8064696.640 -8068761.446 10 0 60199 11700.00000 0 21643713.264 7753393.750 -10996859.843 10 0 60199 12600.00000 0 20131211.102 7498975.499 -13710761.970 10 0 60199 13500.00000 0 18286271.268 7351229.758 -16157614.089 10 0 60199 14400.00000 0 16153815.153 7353160.247 -18289784.297 10 0 60199 15300.00000 0 13788218.874 7538976.904 -20065795.317 10 0 60199 16200.00000 0 11251214.287 7932471.705 -21451133.966 10 0 60199 17100.00000 0 8609494.816 8545849.297 -22418921.531 10 0 60199 18000.00000 0 5932126.643 9379062.228 -22950432.220 10 0 60199 18900.00000 0 3287873.622 10419678.909 -23035450.200 10 0 60199 19800.00000 0 742547.469 11643289.839 -22672458.989 10 0 60199 20700.00000 0 -1643506.619 13014434.706 -21868660.346 10 0 60199 21600.00000 0 -3817684.981 14488011.095 -20639823.144 10 0 60199 22500.00000 0 -5737067.535 16011105.313 -19009965.927 10 0 60199 23400.00000 0 -7369947.503 17525168.169 -17010880.029 10 0 60199 24300.00000 0 -8696886.912 18968444.217 -14681503.063 10 0 60199 25200.00000 0 -9711255.979 20278552.470 -12067155.395 10 0 60199 26100.00000 0 -10419236.068 21395110.375 -9218654.771 10 0 60199 27000.00000 0 -10839288.348 22262291.117 -6191326.533 10 0 60199 27900.00000 0 -11001112.541 22831207.297 -3043928.751 10 0 60199 28800.00000 0 -10944141.343 23062021.317 162486.747 10 0 60199 29700.00000 0 -10715635.319 22925694.389 3365755.379 10 0 60199 30600.00000 0 -10368459.596 22405301.201 6503800.100 10 0 60199 31500.00000 0 -9958636.658 21496855.491 9515827.926 10 0 60199 32400.00000 0 -9542778.690 20209612.100 12343499.918 10 0 60199 33300.00000 0 -9175507.591 18565832.867 14932052.578 10 0 60199 34200.00000 0 -8906971.115 16600025.832 17231349.588 10 0 60199 35100.00000 0 -8780559.285 14357688.949 19196844.417 10 0 60199 36000.00000 0 -8830916.825 11893609.747 20790436.018 10 0 60199 36900.00000 0 -9082334.953 9269790.582 21981201.891 10 0 60199 37800.00000 0 -9547590.145 6553084.362 22745995.042 10 0 60199 38700.00000 0 -10227279.041 3812637.377 23069893.765 10 0 60199 39600.00000 0 -11109678.195 1117243.873 22946495.727 10 0 60199 40500.00000 0 -12171135.776 -1467279.392 22378050.465 10 0 60199 41400.00000 0 -13376980.285 -3880590.985 21375427.194 10 0 60199 42300.00000 0 -14682909.935 -6070092.348 19957917.619 10 0 60199 43200.00000 0 -16036806.141 -7992871.617 18152876.422 10 0 60199 44100.00000 0 -17380896.690 -9617243.280 15995204.991 10 0 60199 45000.00000 0 -18654179.050 -10923819.630 13526687.060 10 0 60199 45900.00000 0 -19795002.835 -11906069.275 10795187.850 10 0 60199 46800.00000 0 -20743703.159 -12570339.199 7853731.211 10 0 60199 47700.00000 0 -21445173.715 -12935339.324 4759472.075 10 0 60199 48600.00000 0 -21851270.390 -13031111.306 1572583.917 10 0 60199 49500.00000 0 -21922942.816 -12897525.255 -1644916.888 10 0 60199 50400.00000 0 -21632002.389 -12582368.362 -4830386.259 10 0 60199 51300.00000 0 -20962450.499 -12139107.078 -7921782.510 10 0 60199 52200.00000 0 -19911309.286 -11624418.633 -10858886.163 10 0 60199 53100.00000 0 -18488918.473 -11095597.719 -13584484.375 10 0 60199 54000.00000 0 -16718684.626 -10607949.548 -16045495.655 10 0 60199 54900.00000 0 -14636292.596 -10212281.061 -18194011.910 10 0 60199 55800.00000 0 -12288411.919 -9952597.668 -19988236.708 10 0 60199 56700.00000 0 -9730952.299 -9864103.913 -21393301.104 10 0 60199 57600.00000 0 -7026941.399 -9971593.224 -22381941.063 10 0 60199 58500.00000 0 -4244113.907 -10288295.017 -22935023.566 10 0 60199 59400.00000 0 -1452312.754 -10815227.804 -23041911.712 10 0 60199 60300.00000 0 1279189.147 -11541085.259 -22700662.443 10 0 60199 61200.00000 0 3884335.211 -12442659.570 -21918053.831 10 0 60199 62100.00000 0 6302789.947 -13485783.644 -20709442.291 10 0 60199 63000.00000 0 8482198.826 -14626751.941 -19098453.192 10 0 60199 63900.00000 0 10380110.431 -15814159.571 -17116511.630 10 0 60199 64800.00000 0 11965482.470 -16991081.897 -14802223.006 10 0 60199 65700.00000 0 13219710.744 -18097502.667 -12200615.883 10 0 60199 66600.00000 0 14137140.220 -19072888.415 -9362262.196 10 0 60199 67500.00000 0 14725038.994 -19858800.910 -6342292.119 10 0 60199 68400.00000 0 15003038.383 -20401437.909 -3199322.863 10 0 60199 69300.00000 0 15002064.544 -20653995.666 5677.698 10 0 60199 70200.00000 0 14762808.185 -20578754.167 3210570.541 10 0 60199 71100.00000 0 14333797.994 -20148797.806 6353245.435 10 0 60199 72000.00000 0 13769159.749 -19349299.452 9372818.222 10 0 60199 72900.00000 0 13126155.919 -18178314.177 12210802.696 10 0 60199 73800.00000 0 12462609.415 -16647049.239 14812234.919 10 0 60199 74700.00000 0 11834319.706 -14779598.678 17126728.901 10 0 60199 75600.00000 0 11292579.577 -12612152.949 19109444.031 10 0 60199 76500.00000 0 10881896.385 -10191715.540 20721946.428 10 0 60199 77400.00000 0 10638013.082 -7574378.827 21932948.341 10 0 60199 78300.00000 0 10586311.758 -4823229.321 22718912.047 10 0 60199 79200.00000 0 10740666.662 -2005967.651 23064507.026 10 0 60199 80100.00000 0 11102795.083 807659.608 22962911.782 10 0 60199 81000.00000 0 11662134.000 3548511.454 22415954.292 10 0 60199 81900.00000 0 12396248.704 6150678.830 21434087.822 10 0 60199 82800.00000 0 13271757.524 8553978.098 20036201.700 10 0 60199 83700.00000 0 14245735.317 10706208.997 18249269.544 10 0 60199 84600.00000 0 15267538.228 12565083.787 16107840.388 10 0 60199 85500.00000 0 16280974.256 14099747.449 13653381.219 10 0 60200 0.00000 0 17226729.185 15291825.415 10933482.638 10 0 60200 900.00000 0 18044946.651 16135955.399 8000940.509 10 0 60200 1800.00000 0 18677852.277 16639779.296 4912734.485 10 0 60200 2700.00000 0 19072312.255 16823397.442 1728918.152 10 0 60200 3600.00000 0 19182215.952 16718306.567 -1488553.850 10 0 60200 4500.00000 0 18970580.976 16365867.227 -4677039.633 10 0 60200 5400.00000 0 18411289.959 15815365.877 -7774439.959 10 0 60200 6300.00000 0 17490383.955 15121754.407 -10720419.093 10 0 60200 7200.00000 0 16206856.165 14343163.858 -13457591.456 10 0 60200 8100.00000 0 14572911.046 13538298.815 -15932649.740 10 0 60200 9000.00000 0 12613676.763 12763823.932 -18097411.446 10 0 60200 9900.00000 0 10366382.256 12071854.359 -19909762.626 10 0 60200 10800.00000 0 7879033.035 11507657.012 -21334480.050 10 0 60200 11700.00000 0 5208641.002 11107660.451 -22343915.697 10 0 60200 12600.00000 0 2419082.383 10897857.569 -22918530.485 10 0 60200 13500.00000 0 -421326.667 10892668.326 -23047267.395 10 0 60200 14400.00000 0 -3242435.673 11094310.010 -22727757.463 10 0 60200 15300.00000 0 -5974938.181 11492700.801 -21966355.419 10 0 60200 16200.00000 0 -8553011.697 12065899.796 -20778005.147 10 0 60200 17100.00000 0 -10916810.085 12781064.033 -19185938.348 10 0 60200 18000.00000 0 -13014705.622 13595881.270 -17221212.953 10 0 60200 18900.00000 0 -14805188.735 14460417.388 -14922100.822 10 0 60200 19800.00000 0 -16258347.880 15319300.004 -12333337.053 10 0 60200 20700.00000 0 -17356869.627 16114145.853 -9505245.825 10 0 60200 21600.00000 0 -18096519.198 16786129.455 -6492760.001 10 0 60200 22500.00000 0 -18486083.318 17278584.817 -3354353.633 10 0 60200 23400.00000 0 -18546779.715 17539530.634 -150908.225 10 0 60200 24300.00000 0 -18311159.729 17524012.843 3055465.270 10 0 60200 25200.00000 0 -17821551.538 17196166.147 6202626.010 10 0 60200 26100.00000 0 -17128110.476 16530907.968 9229601.310 10 0 60200 27000.00000 0 -16286559.051 15515193.709 12077760.369 10 0 60200 27900.00000 0 -15355711.935 14148780.519 14691941.482 10 0 60200 28800.00000 0 -14394889.842 12444467.186 17021511.607 10 0 60200 29700.00000 0 -13461330.559 10427799.420 19021338.564 10 0 60200 30600.00000 0 -12607705.236 8136251.832 20652657.961 10 0 60200 31500.00000 0 -11879843.498 5617919.395 21883818.883 10 0 60200 32400.00000 0 -11314762.177 2929771.256 22690894.647 10 0 60200 33300.00000 0 -10939079.835 135537.693 23058147.330 10 0 60200 34200.00000 0 -10767883.372 -2696683.901 22978337.277 10 0 60200 35100.00000 0 -10804094.346 -5497006.533 22452871.445 10 0 60200 36000.00000 0 -11038362.069 -8196409.401 21491787.226 10 0 60200 36900.00000 0 -11449488.792 -10729363.180 20113571.146 10 0 60200 37800.00000 0 -12005370.160 -13036316.917 18344814.832 10 0 60200 38700.00000 0 -12664412.579 -15065943.877 16219713.554 10 0 60200 39600.00000 0 -13377368.996 -16777053.162 13779415.690 10 0 60200 40500.00000 0 -14089516.689 -18140087.371 11071234.449 10 0 60200 41400.00000 0 -14743085.812 -19138143.493 8147736.088 10 0 60200 42300.00000 0 -15279836.302 -19767473.862 5065721.647 10 0 60200 43200.00000 0 -15643673.896 -20037445.805 1885121.740 10 0 60200 44100.00000 0 -15783193.755 -19969961.425 -1332173.962 10 0 60200 45000.00000 0 -15654042.809 -19598361.959 -4523529.096 10 0 60200 45900.00000 0 -15220999.239 -18965863.224 -7626790.271 10 0 60200 46800.00000 0 -14459679.383 -18123588.821 -10581508.891 10 0 60200 47700.00000 0 -13357798.083 -17128285.105 -13330129.968 10 0 60200 48600.00000 0 -11915927.629 -16039815.579 -15819123.557 10 0 60200 49500.00000 0 -10147721.827 -14918541.780 -18000035.663 10 0 60200 50400.00000 0 -8079594.673 -13822702.421 -19830437.357 10 0 60200 51300.00000 0 -5749866.356 -12805902.369 -21274753.169 10 0 60200 52200.00000 0 -3207411.917 -11914818.017 -22304952.550 10 0 60200 53100.00000 0 -509868.960 -11187216.046 -22901091.176 10 0 60200 54000.00000 0 2278520.768 -10650368.858 -23051692.086 10 0 60200 54900.00000 0 5089345.901 -10319932.839 -22753959.963 10 0 60200 55800.00000 0 7852634.644 -10199335.752 -22013825.179 10 0 60200 56700.00000 0 10499530.235 -10279697.883 -20845817.594 10 0 60200 57600.00000 0 12964921.771 -10540288.965 -19272773.322 10 0 60200 58500.00000 0 15189921.609 -10949500.338 -17325380.847 10 0 60200 59400.00000 0 17124087.196 -11466290.166 -15041575.889 10 0 60200 60300.00000 0 18727296.099 -12042039.782 -12465797.180 10 0 60200 61200.00000 0 19971197.503 -12622742.090 -9648117.994 10 0 60200 62100.00000 0 20840181.338 -13151429.131 -6643270.518 10 0 60200 63000.00000 0 21331826.275 -13570736.144 -3509582.150 10 0 60200 63900.00000 0 21456809.631 -13825493.776 -307844.489 10 0 60200 64800.00000 0 21238284.601 -13865239.217 2899863.037 10 0 60200 65700.00000 0 20710752.377 -13646540.463 6051372.253 10 0 60200 66600.00000 0 19918477.614 -13135035.986 9085624.911 10 0 60200 67500.00000 0 18913514.539 -12307103.993 11943848.189 10 0 60200 68400.00000 0 17753426.923 -11151091.042 14570684.747 10 0 60200 69300.00000 0 16498797.653 -9668048.106 16915256.128 10 0 60200 70200.00000 0 15210632.008 -7871942.622 18932139.741 10 0 60200 71100.00000 0 13947762.934 -5789336.669 20582241.381 10 0 60200 72000.00000 0 12764366.269 -3458543.441 21833547.223 10 0 60200 72900.00000 0 11707689.165 -928295.522 22661741.488 10 0 60200 73800.00000 0 10816086.042 1744021.436 23050678.344 10 0 60200 74700.00000 0 10117443.731 4494498.222 22992699.137 10 0 60200 75600.00000 0 9628061.378 7255108.303 22488788.691 10 0 60200 76500.00000 0 9352032.064 9956292.822 21548567.137 10 0 60200 77400.00000 0 9281152.323 12529618.638 20190116.607 10 0 60200 78300.00000 0 9395363.994 14910400.331 18439644.975 10 0 60200 79200.00000 0 9663710.590 17040178.057 16330991.837 10 0 60200 80100.00000 0 10045768.843 18868948.493 13904984.940 10 0 60200 81000.00000 0 10493495.873 20357055.924 11208658.236 10 0 60200 81900.00000 0 10953414.625 21476664.157 8294345.667 10 0 60200 82800.00000 0 11369045.478 22212747.132 5218667.601 10 0 60200 83700.00000 0 11683480.960 22563556.098 2041429.333 10 0 60200 84600.00000 0 11841993.931 22540543.216 -1175546.808 10 0 60200 85500.00000 0 11794567.657 22167744.451 -4369632.323 10 0 60201 0.00000 0 11498239.171 21480647.815 -7478621.655 10 0 60201 900.00000 0 10919154.786 20524594.548 -10441956.015 10 0 60201 1800.00000 0 10034249.362 19352782.309 -13201912.656 10 0 60201 2700.00000 0 8832476.088 18023954.324 -15704740.708 10 0 60201 3600.00000 0 7315533.528 16599873.865 -17901716.186 10 0 60201 4500.00000 0 5498057.869 15142691.369 -19750096.481 10 0 60201 5400.00000 0 3407271.219 13712316.163 -21213954.999 10 0 60201 6300.00000 0 1082100.033 12363904.167 -22264879.605 10 0 60201 7200.00000 0 -1428199.828 11145567.658 -22882521.480 10 0 60201 8100.00000 0 -4065854.099 10096403.315 -23054984.252 10 0 60201 9000.00000 0 -6766741.651 9244920.849 -22779046.506 10 0 60201 9900.00000 0 -9462836.010 8607937.322 -22060214.179 10 0 60201 10800.00000 0 -12084815.267 8189982.278 -20912602.657 10 0 60201 11700.00000 0 -14564731.965 7983237.150 -19358651.604 10 0 60201 12600.00000 0 -16838632.243 7968009.871 -17428678.808 10 0 60201 13500.00000 0 -18849015.886 8113723.047 -15160282.253 10 0 60201 14400.00000 0 -20547035.745 8380372.642 -12597602.437 10 0 60201 15300.00000 0 -21894345.975 8720394.413 -9790459.659 10 0 60201 16200.00000 0 -22864523.318 9080858.391 -6793383.238 10 0 60201 17100.00000 0 -23444003.556 9405898.127 -3664551.641 10 0 60201 18000.00000 0 -23632495.466 9639271.743 -464664.238 10 0 60201 18900.00000 0 -23442856.442 9726946.493 2744233.445 10 0 60201 19800.00000 0 -22900436.347 9619597.758 5899948.303 10 0 60201 20700.00000 0 -22041918.175 9274917.136 8941338.986 10 0 60201 21600.00000 0 -20913704.989 8659632.449 11809493.133 10 0 60201 22500.00000 0 -19569921.168 7751154.601 14448860.234 10 0 60201 23400.00000 0 -18070111.856 6538781.840 16808318.831 10 0 60201 24300.00000 0 -16476736.714 5024410.428 18842158.195 10 0 60201 25200.00000 0 -14852562.269 3222721.054 20510956.369 10 0 60201 26100.00000 0 -13258061.210 1160832.086 21782338.402 10 0 60201 27000.00000 0 -11748926.369 -1122567.452 22631600.857 10 0 60201 27900.00000 0 -10373802.339 -3578570.846 23042191.059 10 0 60201 28800.00000 0 -9172328.652 -6149838.312 23006032.011 10 0 60201 29700.00000 0 -8173575.597 -8772741.135 22523686.635 10 0 60201 30600.00000 0 -7394937.660 -11379778.313 21604357.637 10 0 60201 31500.00000 0 -6841530.773 -13902167.032 20265722.161 10 0 60201 32400.00000 0 -6506118.771 -16272500.833 18533603.340 10 0 60201 33300.00000 0 -6369572.547 -18427365.953 16441483.732 10 0 60201 34200.00000 0 -6401843.139 -20309807.437 14029868.727 10 0 60201 35100.00000 0 -6563408.351 -21871542.306 11345510.980 10 0 60201 36000.00000 0 -6807132.334 -23074827.022 8440509.822 10 0 60201 36900.00000 0 -7080459.817 -23893900.456 5371302.437 10 0 60201 37800.00000 0 -7327852.035 -24315941.109 2197566.116 10 0 60201 38700.00000 0 -7493360.667 -24341497.563 -1018946.953 10 0 60201 39600.00000 0 -7523229.791 -23984373.396 -4215619.049 10 0 60201 40500.00000 0 -7368414.223 -23270970.981 -7330195.967 10 0 60201 41400.00000 0 -6986905.911 -22239121.719 -10302010.644 10 0 60201 42300.00000 0 -6345768.071 -20936452.315 -13073176.163 10 0 60201 43200.00000 0 -5422789.176 -19418356.522 -15589723.684 10 0 60201 44100.00000 0 -4207685.208 -17745658.694 -17802662.025 10 0 60201 45000.00000 0 -2702797.935 -15982068.495 -19668937.409 10 0 60201 45900.00000 0 -923258.621 -14191534.794 -21152274.254 10 0 60201 46800.00000 0 1103390.652 -12435610.762 -22223880.501 10 0 60201 47700.00000 0 3338102.722 -10770941.275 -22863003.974 10 0 60201 48600.00000 0 5731720.579 -9246978.125 -23057329.463 10 0 60201 49500.00000 0 8226803.921 -7904018.427 -22803209.489 10 0 60201 50400.00000 0 10759810.804 -6771647.603 -22105725.076 10 0 60201 51300.00000 0 13263543.442 -5867650.891 -20978576.174 10 0 60201 52200.00000 0 15669756.343 -5197437.410 -19443804.624 10 0 60201 53100.00000 0 17911818.306 -4753999.096 -17531355.736 10 0 60201 54000.00000 0 19927317.793 -4518404.307 -15278487.576 10 0 60201 54900.00000 0 21660503.704 -4460803.476 -12729039.850 10 0 60201 55800.00000 0 23064460.543 -4541902.782 -9932576.962 10 0 60201 56700.00000 0 24102928.223 -4714842.317 -6943422.109 10 0 60201 57600.00000 0 24751691.635 -4927398.412 -3819601.330 10 0 60201 58500.00000 0 24999483.107 -5124416.409 -621718.115 10 0 60201 59400.00000 0 24848361.233 -5250370.672 2588219.579 10 0 60201 60300.00000 0 24313551.412 -5251943.579 5747997.275 10 0 60201 61200.00000 0 23422755.719 -5080514.551 8796393.829 10 0 60201 62100.00000 0 22214961.818 -4694454.257 11674360.302 10 0 60201 63000.00000 0 20738801.219 -4061127.304 14326155.548 10 0 60201 63900.00000 0 19050525.732 -3158519.066 16700417.166 10 0 60201 64800.00000 0 17211686.514 -1976417.983 18751147.859 10 0 60201 65700.00000 0 15286612.158 -517103.109 20438599.016 10 0 60201 66600.00000 0 13339790.367 1204492.879 21730035.200 10 0 60201 67500.00000 0 11433261.465 3161153.304 22600365.523 10 0 60201 68400.00000 0 9624131.375 5314266.083 23032630.249 10 0 60201 69300.00000 0 7962306.748 7615196.097 23018333.434 10 0 60201 70200.00000 0 6488545.750 10007086.324 22557615.107 10 0 60201 71100.00000 0 5232905.091 12427014.878 21659259.185 10 0 60201 72000.00000 0 4213647.686 14808420.131 20340536.152 10 0 60201 72900.00000 0 3436656.435 17083694.671 18626882.433 10 0 60201 73800.00000 0 2895378.674 19186841.368 16551421.338 10 0 60201 74700.00000 0 2571303.908 21056081.549 14154333.516 10 0 60201 75600.00000 0 2434955.024 22636306.714 11482087.798 10 0 60201 76500.00000 0 2447351.553 23881271.078 8586546.273 10 0 60201 77400.00000 0 2561883.346 24755432.461 5523960.254 10 0 60201 78300.00000 0 2726515.369 25235363.471 2353876.315 10 0 60201 79200.00000 0 2886229.823 25310672.640 -862026.192 10 0 60201 80100.00000 0 2985601.304 24984395.809 -4061142.935 10 0 60201 81000.00000 0 2971394.642 24272840.498 -7181173.268 10 0 60201 81900.00000 0 2795073.804 23204889.287 -10161344.678 10 0 60201 82800.00000 0 2415113.847 21820791.441 -12943607.826 10 0 60201 83700.00000 0 1799016.251 20170493.884 -15473777.659 10 0 60201 84600.00000 0 924940.683 18311582.316 -17702597.273 10 0 60201 85500.00000 0 -217117.296 16306919.832 -19586702.950 99